This is the latest recevied weather packets stored in our database for station/object NK7E. If no packets are shown the sender has not sent any weather packets the latest 10 day(s).
| Time | Temp. | Humidity | Pressure | Rain* | Wind** | Luminosity | Snow |
|---|---|---|---|---|---|---|---|
| 1777496716 | 27.78° C | 10% | 1014.7 hPa | 0 mm | - | 515 W/m² | - |
| 1777496116 | 27.22° C | 9% | 1014.6 hPa | 0 mm | - | 530 W/m² | - |
| 1777495516 | 27.78° C | 9% | 1014.7 hPa | 0 mm | - | 544 W/m² | - |
| 1777494916 | 27.78° C | 10% | 1014.7 hPa | 0 mm | - | 587 W/m² | - |
| 1777494316 | 27.22° C | 11% | 1014.7 hPa | 0 mm | - | 778 W/m² | - |
| 1777493716 | 27.22° C | 11% | 1014.9 hPa | 0 mm | - | 857 W/m² | - |
| 1777493116 | 27.22° C | 12% | 1014.9 hPa | 0 mm | - | 712 W/m² | - |
| 1777492516 | 27.22° C | 12% | 1015.1 hPa | 0 mm | - | 672 W/m² | - |
| 1777491916 | 26.67° C | 13% | 1015.2 hPa | 0 mm | - | 891 W/m² | - |
| 1777491316 | 26.67° C | 11% | 1015.3 hPa | 0 mm | - | 940 W/m² | - |
| 1777490716 | 26.67° C | 13% | 1015.5 hPa | 0 mm | - | 938 W/m² | - |
| 1777490116 | 26.67° C | 15% | 1015.5 hPa | 0 mm | - | 979 W/m² | - |
| 1777489516 | 26.11° C | 16% | 1015.7 hPa | 0 mm | - | 986 W/m² | - |
| 1777488916 | 25.56° C | 17% | 1015.9 hPa | 0 mm | - | 983 W/m² | - |
| 1777488316 | 25.56° C | 17% | 1016 hPa | 0 mm | - | 990 W/m² | - |
| 1777487716 | 25.56° C | 16% | 1016.1 hPa | 0 mm | - | 993 W/m² | - |
| 1777487116 | 25° C | 18% | 1016.3 hPa | 0 mm | - | 950 W/m² | - |
| 1777486516 | 23.89° C | 19% | 1016.5 hPa | 0 mm | - | 388 W/m² | - |
| 1777485916 | 24.44° C | 19% | 1016.4 hPa | 0 mm | - | 409 W/m² | - |
| 1777485316 | 24.44° C | 19% | 1016.5 hPa | 0 mm | - | 424 W/m² | - |
| 1777484716 | 24.44° C | 19% | 1016.6 hPa | 0 mm | - | 473 W/m² | - |
| 1777484116 | 24.44° C | 20% | 1016.8 hPa | 0 mm | - | 438 W/m² | - |
| 1777483516 | 24.44° C | 19% | 1016.8 hPa | 0 mm | - | 508 W/m² | - |
| 1777482916 | 23.89° C | 20% | 1016.7 hPa | 0 mm | - | 747 W/m² | - |
| 1777482315 | 23.89° C | 20% | 1016.7 hPa | 0 mm | - | 673 W/m² | - |
* Rain latest hour (hover to see other rain measurements)
** Current wind speed in m/s (hover to see current wind gust speed)